When you browse on this site, cookies collect data to enhance your experience and personalize the content and advertising you see.
Visit our Privacy Policy to learn more. By continuing to use the site, you agree to this use of cookies and data.
  • In Belgium
  • List of Countries
  • For 7 days
  • Water Temperature
  • Satellite Maps
  • Weather Map
  • Weather Widgets
  • user-avatar
    Login

    Hourly Weather Roza

    Today, 16 January, Wednesday

    Time Temperature Precipitation Wind Pressure Humidity
    00:00 -4°C° 0.7 mm 5 mps 720 mmHg 93%
    01:00 -3°C° 0.7 mm 6 mps 720 mmHg 92%
    02:00 -2°C° 0 mm 5 mps 719 mmHg 91%
    03:00 -2°C° 0.5 mm 7 mps 719 mmHg 91%
    04:00 -2°C° 0.5 mm 8 mps 719 mmHg 91%
    05:00 -2°C° 0.5 mm 10 mps 719 mmHg 90%
    06:00 -1°C° 0.1 mm 9 mps 719 mmHg 90%
    07:00 -2°C° 0.1 mm 8 mps 720 mmHg 89%
    08:00 -2°C° 0 mm 7 mps 721 mmHg 89%
    09:00 -2°C° 0.1 mm 6 mps 722 mmHg 89%
    10:00 -1°C° 0.1 mm 5 mps 723 mmHg 90%
    11:00 -2°C° 0.1 mm 4 mps 724 mmHg 91%
    12:00 -1°C° 0.1 mm 3 mps 725 mmHg 93%
    13:00 -1°C° 0.1 mm 3 mps 725 mmHg 95%
    14:00 -1°C° 0.1 mm 2 mps 725 mmHg 98%
    15:00 -1°C° 0.2 mm 2 mps 726 mmHg 98%
    16:00 -1°C° 0.2 mm 2 mps 726 mmHg 98%
    17:00 -1°C° 0.2 mm 2 mps 726 mmHg 98%
    18:00 0°C° 0.1 mm 3 mps 726 mmHg 98%
    19:00 -1°C° 0.1 mm 4 mps 726 mmHg 97%
    20:00 -1°C° 0.1 mm 5 mps 726 mmHg 97%
    21:00 -1°C° 0 mm 4 mps 726 mmHg 96%
    22:00 -1°C° 0 mm 4 mps 726 mmHg 95%
    23:00 -1°C° 0 mm 4 mps 726 mmHg 94%

    Tomorrow, 17 January, Thursday

    Time Temperature Precipitation Wind Pressure Humidity
    00:00 -2°C° 0 mm 4 mps 726 mmHg 93%
    01:00 -2°C° 0 mm 4 mps 726 mmHg 92%
    02:00 -2°C° 0 mm 4 mps 726 mmHg 91%
    03:00 -2°C° 0 mm 5 mps 725 mmHg 90%
    04:00 -2°C° 0 mm 5 mps 725 mmHg 90%
    05:00 -2°C° 0 mm 5 mps 725 mmHg 89%
    06:00 -2°C° 0 mm 5 mps 724 mmHg 87%
    07:00 -3°C° 0 mm 6 mps 724 mmHg 84%
    08:00 -3°C° 0 mm 6 mps 724 mmHg 81%
    09:00 -2°C° 0 mm 7 mps 724 mmHg 82%
    10:00 -2°C° 0 mm 7 mps 724 mmHg 82%
    11:00 -2°C° 0 mm 8 mps 724 mmHg 82%
    12:00 -1°C° 0 mm 8 mps 724 mmHg 82%
    13:00 -1°C° 0 mm 8 mps 723 mmHg 83%
    14:00 -1°C° 0 mm 7 mps 723 mmHg 83%
    15:00 -1°C° 0 mm 7 mps 724 mmHg 84%
    16:00 -2°C° 0 mm 7 mps 724 mmHg 84%
    17:00 -2°C° 0 mm 6 mps 724 mmHg 84%
    18:00 -2°C° 0 mm 6 mps 724 mmHg 85%
    19:00 -2°C° 0 mm 6 mps 724 mmHg 85%
    20:00 -2°C° 0 mm 6 mps 724 mmHg 86%
    21:00 -2°C° 0 mm 6 mps 724 mmHg 87%
    22:00 -2°C° 0 mm 6 mps 724 mmHg 87%
    23:00 -2°C° 0 mm 6 mps 724 mmHg 88%

    Day after tomorrow, 18 January, Friday

    Time Temperature Precipitation Wind Pressure Humidity
    00:00 -2°C° 0.1 mm 6 mps 724 mmHg 88%
    01:00 -2°C° 0.1 mm 6 mps 724 mmHg 87%
    02:00 -2°C° 0.1 mm 6 mps 724 mmHg 87%
    03:00 -2°C° 0 mm 6 mps 724 mmHg 87%
    04:00 -2°C° 0 mm 6 mps 724 mmHg 87%
    05:00 -2°C° 0 mm 6 mps 724 mmHg 87%
    06:00 -1°C° 0 mm 5 mps 725 mmHg 85%
    07:00 -2°C° 0 mm 5 mps 725 mmHg 83%
    08:00 -4°C° 0 mm 5 mps 726 mmHg 81%
    09:00 -4°C° 0 mm 6 mps 727 mmHg 78%
    10:00 -4°C° 0 mm 7 mps 727 mmHg 76%
    11:00 -5°C° 0 mm 8 mps 728 mmHg 73%
    12:00 -5°C° 0.1 mm 8 mps 728 mmHg 72%
    13:00 -5°C° 0.1 mm 8 mps 729 mmHg 71%
    14:00 -5°C° 0.1 mm 8 mps 730 mmHg 70%
    15:00 -4°C° 0 mm 7 mps 730 mmHg 73%
    16:00 -4°C° 0 mm 6 mps 731 mmHg 76%
    17:00 -4°C° 0 mm 5 mps 732 mmHg 78%
    18:00 -4°C° 0 mm 5 mps 733 mmHg 82%
    19:00 -4°C° 0 mm 4 mps 733 mmHg 85%
    20:00 -5°C° 0 mm 3 mps 734 mmHg 88%
    21:00 -5°C° 0 mm 3 mps 734 mmHg 89%
    22:00 -5°C° 0 mm 3 mps 735 mmHg 90%
    23:00 -5°C° 0 mm 3 mps 735 mmHg 91%

    19 January, Saturday

    Time Temperature Precipitation Wind Pressure Humidity
    00:00 -5°C° 0 mm 3 mps 735 mmHg 92%
    01:00 -5°C° 0 mm 3 mps 735 mmHg 92%
    02:00 -5°C° 0 mm 3 mps 736 mmHg 93%
    03:00 -6°C° 0 mm 3 mps 735 mmHg 93%
    04:00 -6°C° 0 mm 3 mps 735 mmHg 93%
    05:00 -6°C° 0 mm 3 mps 735 mmHg 92%
    06:00 -6°C° 0 mm 3 mps 735 mmHg 90%
    07:00 -6°C° 0 mm 3 mps 735 mmHg 88%
    08:00 -5°C° 0 mm 3 mps 735 mmHg 86%
    09:00 -5°C° 0 mm 3 mps 735 mmHg 83%
    10:00 -5°C° 0 mm 3 mps 735 mmHg 81%
    11:00 -4°C° 0 mm 3 mps 735 mmHg 78%
    12:00 -4°C° 0 mm 3 mps 735 mmHg 77%
    13:00 -4°C° 0 mm 3 mps 735 mmHg 77%
    14:00 -2°C° 0 mm 2 mps 734 mmHg 77%
    15:00 -3°C° 0 mm 2 mps 734 mmHg 80%
    16:00 -4°C° 0 mm 2 mps 734 mmHg 83%
    17:00 -2°C° 0 mm 1 mps 734 mmHg 86%
    18:00 -2°C° 0 mm 1 mps 734 mmHg 86%
    19:00 -3°C° 0 mm 1 mps 734 mmHg 87%
    20:00 -3°C° 0 mm 1 mps 734 mmHg 88%
    21:00 -3°C° 0 mm 1 mps 733 mmHg 88%
    22:00 -3°C° 0 mm 1 mps 733 mmHg 88%
    23:00 -3°C° 0 mm 1 mps 733 mmHg 88%

    20 January, Sunday

    Time Temperature Precipitation Wind Pressure Humidity
    00:00 -3°C° 0 mm 1 mps 733 mmHg 87%
    01:00 -3°C° 0 mm 1 mps 733 mmHg 87%
    02:00 -3°C° 0 mm 1 mps 732 mmHg 87%
    03:00 -3°C° 0 mm 1 mps 732 mmHg 86%
    04:00 -3°C° 0 mm 1 mps 732 mmHg 86%
    05:00 -3°C° 0 mm 1 mps 731 mmHg 86%
    06:00 -3°C° 0 mm 1 mps 731 mmHg 86%
    07:00 -3°C° 0 mm 1 mps 731 mmHg 86%
    08:00 -4°C° 0 mm 1 mps 731 mmHg 86%
    09:00 -3°C° 0 mm 1 mps 731 mmHg 84%
    10:00 -3°C° 0 mm 1 mps 731 mmHg 82%
    11:00 -2°C° 0 mm 1 mps 731 mmHg 80%
    12:00 -2°C° 0 mm 1 mps 731 mmHg 78%
    13:00 -1°C° 0 mm 1 mps 731 mmHg 76%
    14:00 -1°C° 0 mm 1 mps 730 mmHg 74%
    15:00 -2°C° 0 mm 1 mps 730 mmHg 78%
    16:00 -2°C° 0 mm 1 mps 730 mmHg 82%
    17:00 -3°C° 0 mm 1 mps 730 mmHg 85%
    18:00 -4°C° 0 mm 0 mps 730 mmHg 86%
    19:00 -4°C° 0 mm 0 mps 730 mmHg 87%
    20:00 -5°C° 0 mm 0 mps 730 mmHg 87%
    21:00 -5°C° 0 mm 0 mps 731 mmHg 88%
    22:00 -4°C° 0 mm 1 mps 731 mmHg 88%
    23:00 -4°C° 0 mm 1 mps 731 mmHg 88%

    21 January, Monday

    Time Temperature Precipitation Wind Pressure Humidity
    00:00 -4°C° 0 mm 1 mps 731 mmHg 88%
    01:00 -6°C° 0 mm 2 mps 731 mmHg 88%
    02:00 -7°C° 0 mm 2 mps 731 mmHg 88%
    03:00 -7°C° 0 mm 2 mps 731 mmHg 88%
    04:00 -7°C° 0 mm 2 mps 731 mmHg 88%
    05:00 -7°C° 0 mm 2 mps 732 mmHg 88%
    06:00 -7°C° 0 mm 3 mps 732 mmHg 89%
    07:00 -7°C° 0 mm 3 mps 733 mmHg 89%
    08:00 -8°C° 0 mm 4 mps 733 mmHg 90%
    09:00 -7°C° 0 mm 4 mps 734 mmHg 87%
    10:00 -7°C° 0 mm 4 mps 734 mmHg 84%
    11:00 -7°C° 0 mm 4 mps 735 mmHg 81%
    12:00 -7°C° 0 mm 4 mps 735 mmHg 78%
    13:00 -6°C° 0 mm 5 mps 735 mmHg 75%
    14:00 -6°C° 0 mm 5 mps 735 mmHg 72%
    15:00 -7°C° 0 mm 4 mps 736 mmHg 75%
    16:00 -7°C° 0 mm 4 mps 736 mmHg 77%
    17:00 -7°C° 0 mm 3 mps 736 mmHg 80%
    18:00 -7°C° 0 mm 3 mps 737 mmHg 81%
    19:00 -7°C° 0 mm 3 mps 737 mmHg 82%
    20:00 -7°C° 0 mm 3 mps 738 mmHg 83%
    21:00 -7°C° 0 mm 3 mps 738 mmHg 84%
    22:00 -8°C° 0 mm 3 mps 738 mmHg 86%
    23:00 -8°C° 0 mm 3 mps 739 mmHg 87%
    Show more